| time (UTC) | temp F | wind direction | speed MPH | gust MPH | rain 1hr in | rain 24hr in | rain mn in | humidity % | barometer mb |
| 20260506031517 | 41 | 293 | 1.0 | 2.0 | 0.00 | 0.00 | 0.00 | 58 | 1011.9 |
| 20260506030517 | 42 | 270 | 1.0 | 1.0 | 0.00 | 0.00 | 0.00 | 54 | 1011.9 |
| 20260506025517 | 42 | 270 | 1.0 | 2.0 | 0.00 | 0.00 | 0.00 | 54 | 1011.9 |
| 20260506024520 | 42 | 270 | 1.0 | 1.0 | 0.00 | 0.00 | 0.00 | 55 | 1011.9 |
| 20260506023537 | 42 | 270 | 1.0 | 2.0 | 0.00 | 0.00 | 0.00 | 55 | 1011.8 |
| 20260506022517 | 42 | 270 | 1.0 | 2.0 | 0.00 | 0.00 | 0.00 | 55 | 1011.6 |
| 20260506021517 | 42 | 270 | 1.0 | 1.0 | 0.00 | 0.00 | 0.00 | 57 | 1011.4 |
| 20260506020517 | 41 | 270 | 2.0 | 2.0 | 0.00 | 0.00 | 0.00 | 59 | 1011.5 |
| 20260506015537 | 41 | 270 | 3.0 | 4.0 | 0.00 | 0.00 | 0.00 | 59 | 1011.4 |
| 20260506014517 | 42 | 270 | 3.0 | 5.0 | 0.00 | 0.00 | 0.00 | 57 | 1011.1 |
| 20260506013517 | 43 | 270 | 5.0 | 7.0 | 0.00 | 0.00 | 0.00 | 55 | 1011.0 |
| 20260506012517 | 43 | 270 | 5.0 | 8.0 | 0.00 | 0.00 | 0.00 | 55 | 1010.8 |
| 20260506011518 | 44 | 293 | 4.0 | 6.0 | 0.00 | 0.00 | 0.00 | 56 | 1010.7 |
| 20260506010517 | 44 | 270 | 5.0 | 8.0 | 0.00 | 0.00 | 0.00 | 54 | 1010.9 |
| 20260506005517 | 45 | 270 | 7.0 | 9.0 | 0.00 | 0.00 | 0.00 | 50 | 1010.8 |
| 20260506004517 | 46 | 270 | 8.0 | 14.0 | 0.00 | 0.00 | 0.00 | 50 | 1010.7 |
| 20260506003517 | 46 | 270 | 10.0 | 14.0 | 0.00 | 0.00 | 0.00 | 50 | 1010.6 |
| 20260506002517 | 46 | 270 | 11.0 | 16.0 | 0.00 | 0.00 | 0.00 | 47 | 1010.6 |
| 20260506001537 | 46 | 270 | 9.0 | 13.0 | 0.00 | 0.00 | 0.00 | 47 | 1010.5 |
| 20260506000557 | 46 | 270 | 9.0 | 11.0 | 0.00 | 0.00 | 0.00 | 48 | 1010.4 |
| 20260505235517 | 47 | 270 | 11.0 | 14.0 | 0.00 | 0.00 | 0.00 | 48 | 1010.4 |
| 20260505234558 | 47 | 270 | 14.0 | 18.0 | 0.00 | 0.00 | 0.00 | 43 | 1010.1 |
| 20260505233517 | 48 | 270 | 14.0 | 19.0 | 0.00 | 0.00 | 0.00 | 44 | 1010.0 |
| 20260505232517 | 48 | 270 | 13.0 | 18.0 | 0.00 | 0.00 | 0.00 | 43 | 1009.9 |
| 20260505231516 | 48 | 270 | 11.0 | 16.0 | 0.00 | 0.00 | 0.00 | 45 | 1009.9 |
| 20260505230517 | 49 | 270 | 14.0 | 19.0 | 0.00 | 0.00 | 0.00 | 43 | 1009.8 |
| 20260505225517 | 49 | 293 | 14.0 | 17.0 | 0.00 | 0.00 | 0.00 | 45 | 1009.6 |
| 20260505224516 | 49 | 270 | 12.0 | 19.0 | 0.00 | 0.00 | 0.00 | 44 | 1009.6 |
| 20260505223517 | 49 | 270 | 14.0 | 20.0 | 0.00 | 0.00 | 0.00 | 42 | 1009.6 |
| 20260505222516 | 50 | 270 | 11.0 | 16.0 | 0.00 | 0.00 | 0.00 | 45 | 1009.6 |
| 20260505221518 | 50 | 270 | 10.0 | 14.0 | 0.00 | 0.00 | 0.00 | 46 | 1009.5 |
| 20260505220518 | 50 | 270 | 14.0 | 22.0 | 0.00 | 0.00 | 0.00 | 44 | 1009.3 |
| 20260505215517 | 50 | 270 | 17.0 | 22.0 | 0.00 | 0.00 | 0.00 | 43 | 1009.3 |
| 20260505214517 | 50 | 270 | 14.0 | 21.0 | 0.00 | 0.00 | 0.00 | 40 | 1009.2 |
| 20260505213517 | 51 | 270 | 13.0 | 20.0 | 0.00 | 0.00 | 0.00 | 44 | 1008.8 |
| 20260505212517 | 50 | 270 | 14.0 | 20.0 | 0.00 | 0.00 | 0.00 | 45 | 1008.9 |
| 20260505211517 | 50 | 270 | 14.0 | 20.0 | 0.00 | 0.00 | 0.00 | 43 | 1008.9 |
| 20260505210516 | 51 | 270 | 16.0 | 22.0 | 0.00 | 0.00 | 0.00 | 43 | 1009.2 |
| 20260505205517 | 52 | 248 | 16.0 | 20.0 | 0.00 | 0.00 | 0.00 | 41 | 1009.3 |
| 20260505204518 | 51 | 248 | 14.0 | 20.0 | 0.00 | 0.00 | 0.00 | 43 | 1009.4 |
| 20260505203536 | 50 | 248 | 13.0 | 19.0 | 0.00 | 0.00 | 0.00 | 49 | 1009.2 |
| 20260505202537 | 52 | 248 | 16.0 | 21.0 | 0.00 | 0.00 | 0.00 | 46 | 1009.2 |
| 20260505201516 | 50 | 270 | 10.0 | 18.0 | 0.00 | 0.00 | 0.00 | 43 | 1008.8 |
| 20260505200537 | 51 | 248 | 14.0 | 21.0 | 0.00 | 0.00 | 0.00 | 43 | 1008.9 |
| 20260505195516 | 51 | 248 | 14.0 | 20.0 | 0.00 | 0.00 | 0.00 | 45 | 1008.7 |
| 20260505194516 | 52 | 248 | 16.0 | 21.0 | 0.00 | 0.00 | 0.00 | 45 | 1008.8 |
| 20260505193517 | 50 | 248 | 15.0 | 18.0 | 0.00 | 0.00 | 0.00 | 44 | 1008.8 |
| 20260505192516 | 52 | 248 | 15.0 | 21.0 | 0.00 | 0.00 | 0.00 | 45 | 1008.8 |
| 20260505191617 | 53 | 225 | 14.0 | 20.0 | 0.00 | 0.00 | 0.00 | 43 | 1008.6 |
| 20260505190516 | 51 | 248 | 9.0 | 16.0 | 0.00 | 0.00 | 0.00 | 47 | 1008.5 |
| 20260505185517 | 51 | 248 | 12.0 | 17.0 | 0.00 | 0.00 | 0.00 | 46 | 1008.3 |
| 20260505184516 | 53 | 248 | 15.0 | 21.0 | 0.00 | 0.00 | 0.00 | 43 | 1008.2 |
| 20260505183557 | 52 | 248 | 16.0 | 22.0 | 0.00 | 0.00 | 0.00 | 40 | 1008.2 |
| 20260505182536 | 52 | 248 | 17.0 | 22.0 | 0.00 | 0.00 | 0.00 | 43 | 1008.1 |
| 20260505181536 | 52 | 248 | 16.0 | 22.0 | 0.00 | 0.00 | 0.00 | 42 | 1008.1 |
| 20260505180516 | 51 | 248 | 15.0 | 19.0 | 0.00 | 0.00 | 0.00 | 44 | 1007.9 |
| 20260505175516 | 52 | 248 | 17.0 | 23.0 | 0.00 | 0.00 | 0.00 | 43 | 1008.0 |
| 20260505174516 | 51 | 248 | 11.0 | 16.0 | 0.00 | 0.00 | 0.00 | 43 | 1007.8 |
| 20260505173517 | 52 | 248 | 15.0 | 20.0 | 0.00 | 0.00 | 0.00 | 44 | 1007.9 |
| 20260505172516 | 52 | 225 | 13.0 | 19.0 | 0.00 | 0.00 | 0.00 | 43 | 1007.9 |
| 20260505171516 | 51 | 248 | 10.0 | 16.0 | 0.00 | 0.00 | 0.00 | 44 | 1007.8 |
| 20260505170516 | 51 | 248 | 13.0 | 22.0 | 0.00 | 0.00 | 0.00 | 49 | 1007.8 |
| 20260505165516 | 51 | 248 | 10.0 | 15.0 | 0.00 | 0.00 | 0.00 | 47 | 1007.8 |
| 20260505164516 | 50 | 248 | 13.0 | 18.0 | 0.00 | 0.00 | 0.00 | 42 | 1007.7 |
| 20260505163536 | 50 | 248 | 14.0 | 19.0 | 0.00 | 0.00 | 0.00 | 48 | 1007.6 |
| 20260505162516 | 50 | 248 | 13.0 | 17.0 | 0.00 | 0.00 | 0.00 | 51 | 1007.8 |
| 20260505161516 | 49 | 248 | 14.0 | 21.0 | 0.00 | 0.00 | 0.00 | 50 | 1007.6 |
| 20260505160516 | 49 | 248 | 13.0 | 16.0 | 0.00 | 0.00 | 0.00 | 49 | 1007.8 |
| 20260505152516 | 49 | 248 | 14.0 | 21.0 | 0.00 | 0.00 | 0.00 | 51 | 1008.0 |
| 20260505151516 | 49 | 248 | 11.0 | 16.0 | 0.00 | 0.00 | 0.00 | 55 | 1008.0 |
| 20260505150516 | 49 | 225 | 11.0 | 17.0 | 0.00 | 0.00 | 0.00 | 52 | 1008.0 |
| 20260505140516 | 48 | 270 | 8.0 | 11.0 | 0.00 | 0.00 | 0.00 | 52 | 1008.1 |
| 20260505124516 | 45 | 248 | 9.0 | 12.0 | 0.00 | 0.00 | 0.00 | 57 | 1007.5 |
| 20260505123516 | 45 | 248 | 7.0 | 9.0 | 0.00 | 0.00 | 0.00 | 58 | 1007.4 |
| 20260505122516 | 44 | 248 | 6.0 | 9.0 | 0.00 | 0.00 | 0.00 | 60 | 1007.3 |
| 20260505121516 | 44 | 248 | 6.0 | 8.0 | 0.00 | 0.00 | 0.00 | 62 | 1007.2 |
| 20260505120515 | 43 | 248 | 6.0 | 9.0 | 0.00 | 0.00 | 0.00 | 64 | 1007.2 |
| 20260505115516 | 42 | 225 | 4.0 | 5.0 | 0.00 | 0.00 | 0.00 | 69 | 1007.1 |
| 20260505114515 | 41 | 225 | 3.0 | 4.0 | 0.00 | 0.00 | 0.00 | 70 | 1007.1 |
| 20260505113516 | 40 | 225 | 3.0 | 4.0 | 0.00 | 0.00 | 0.00 | 71 | 1007.1 |
| 20260505112515 | 39 | 225 | 3.0 | 4.0 | 0.00 | 0.00 | 0.00 | 70 | 1007.0 |
| 20260505111515 | 38 | 225 | 2.0 | 4.0 | 0.00 | 0.00 | 0.00 | 71 | 1006.7 |
| 20260505110516 | 37 | 225 | 2.0 | 5.0 | 0.00 | 0.00 | 0.00 | 71 | 1006.8 |
| 20260505101517 | 37 | 225 | 3.0 | 4.0 | 0.00 | 0.00 | 0.00 | 72 | 1006.3 |
| 20260505100517 | 36 | 225 | 3.0 | 4.0 | 0.00 | 0.00 | 0.00 | 72 | 1006.3 |
| 20260505095517 | 36 | 203 | 2.0 | 3.0 | 0.00 | 0.00 | 0.00 | 72 | 1006.3 |
| 20260505094515 | 36 | 203 | 1.0 | 2.0 | 0.00 | 0.00 | 0.00 | 71 | 1006.1 |
| 20260505093517 | 37 | 203 | 2.0 | 3.0 | 0.00 | 0.00 | 0.00 | 70 | 1005.9 |
| 20260505092517 | 38 | 203 | 2.0 | 3.0 | 0.00 | 0.00 | 0.00 | 68 | 1005.7 |
| 20260505091517 | 39 | 225 | 2.0 | 3.0 | 0.00 | 0.00 | 0.00 | 62 | 1005.5 |
| 20260505090517 | 40 | 225 | 2.0 | 3.0 | 0.00 | 0.00 | 0.00 | 59 | 1005.4 |
| 20260505085518 | 40 | 248 | 3.0 | 3.0 | 0.00 | 0.00 | 0.00 | 57 | 1005.3 |
| 20260505084559 | 41 | 248 | 3.0 | 3.0 | 0.00 | 0.00 | 0.00 | 56 | 1005.1 |
| 20260505083518 | 41 | 248 | 3.0 | 3.0 | 0.00 | 0.00 | 0.00 | 56 | 1005.2 |
| 20260505082517 | 41 | 248 | 2.0 | 3.0 | 0.00 | 0.00 | 0.00 | 56 | 1005.3 |
| 20260505081517 | 40 | 270 | 2.0 | 3.0 | 0.00 | 0.00 | 0.00 | 58 | 1005.1 |
| 20260505080518 | 40 | 270 | 2.0 | 3.0 | 0.00 | 0.00 | 0.00 | 59 | 1005.1 |
| 20260505075517 | 41 | 270 | 3.0 | 3.0 | 0.00 | 0.00 | 0.00 | 60 | 1005.0 |
| 20260505074518 | 41 | 270 | 4.0 | 5.0 | 0.00 | 0.00 | 0.00 | 59 | 1005.0 |
| 20260505073518 | 42 | 270 | 4.0 | 7.0 | 0.00 | 0.00 | 0.00 | 55 | 1005.1 |
| 20260505072518 | 43 | 270 | 6.0 | 8.0 | 0.00 | 0.00 | 0.00 | 54 | 1005.2 |
| 20260505071517 | 43 | 270 | 7.0 | 10.0 | 0.00 | 0.00 | 0.00 | 52 | 1005.2 |
| 20260505070517 | 44 | 270 | 9.0 | 12.0 | 0.00 | 0.00 | 0.00 | 50 | 1005.0 |
| 20260505065517 | 44 | 270 | 11.0 | 17.0 | 0.00 | 0.00 | 0.00 | 50 | 1005.1 |
| 20260505064517 | 44 | 293 | 8.0 | 10.0 | 0.00 | 0.00 | 0.00 | 55 | 1005.0 |
| 20260505063518 | 44 | 293 | 7.0 | 12.0 | 0.00 | 0.00 | 0.00 | 55 | 1005.0 |
| 20260505062517 | 45 | 293 | 9.0 | 14.0 | 0.00 | 0.00 | 0.00 | 52 | 1004.9 |
| 20260505061517 | 45 | 293 | 10.0 | 15.0 | 0.00 | 0.00 | 0.00 | 53 | 1004.8 |
| 20260505060518 | 46 | 270 | 12.0 | 16.0 | 0.00 | 0.00 | 0.00 | 52 | 1004.7 |
| 20260505055518 | 47 | 270 | 13.0 | 19.0 | 0.00 | 0.00 | 0.00 | 54 | 1004.7 |
| 20260505054517 | 47 | 270 | 11.0 | 18.0 | 0.00 | 0.00 | 0.00 | 53 | 1004.6 |
| 20260505053517 | 47 | 270 | 8.0 | 11.0 | 0.00 | 0.00 | 0.00 | 56 | 1004.4 |
| 20260505052517 | 48 | 270 | 12.0 | 16.0 | 0.00 | 0.00 | 0.00 | 53 | 1004.2 |
| 20260505051537 | 48 | 293 | 8.0 | 10.0 | 0.00 | 0.00 | 0.00 | 55 | 1004.1 |
| 20260505050517 | 49 | 293 | 9.0 | 15.0 | 0.00 | 0.00 | 0.00 | 53 | 1003.9 |
| 20260505041537 | 52 | 293 | 5.0 | 10.0 | 0.00 | 0.00 | 0.00 | 53 | 1002.8 |
| 20260505040517 | 52 | 293 | 6.0 | 10.0 | 0.00 | 0.00 | 0.00 | 50 | 1002.5 |
| 20260505035517 | 53 | 293 | 9.0 | 14.0 | 0.00 | 0.00 | 0.00 | 49 | 1002.2 |
| 20260505034518 | 54 | 293 | 8.0 | 13.0 | 0.00 | 0.00 | 0.00 | 48 | 1001.8 |
| 20260505033538 | 54 | 270 | 9.0 | 13.0 | 0.00 | 0.00 | 0.00 | 49 | 1001.4 |
| 20260505032517 | 55 | 270 | 10.0 | 15.0 | 0.00 | 0.00 | 0.00 | 47 | 1001.0 |